星链-31644 (STARLINK-31644 )

导读

STARLINK-31644是美国SpaceX公司星链(Starlink)星座的第二代卫星,于2024年4月2日发射入轨,属于星链第二代V2卫星系列。作为星链全球卫星互联网组网的重要组成部分,该卫星运行于近地轨道,配备先进相控阵天线与激光星间链路,支持手机直连服务,可提供最高150Mbps下载速率与低时延通信,助力实现全球覆盖的高速互联网接入。

Basic Information
目录编号:
59391
目录名称:
STARLINK-31644
国际标识:
2024-062T
轨道中心:
EARTH
卫星名称:
星链-31644
卫星全名:
星链-31644 (STARLINK-31644 )
卫星状态:
在轨 (已飞行807 天)
发射日期:
2024-04-02 UTC
国别 :
美国 (US)
星等 :
--
Orbit Information
数据来源 国际轨道数据 AOE轨道数据
星历时间 2026-06-18T06:25:34+0800
6小时前
查看轨道信息
2026-06-16T23:00:00+0800
1天前
查看轨道信息
半长轴 6840.872km 6840.871km
偏心率 0.0001431 0.0001489
轨道倾角 53.160° 53.158°
近地点辐角 92.491° 71.022°
升交点赤经 151.867° 157.993°
平近点角 267.625° 252.031°
近地点 461.756km 461.715km
远地点 463.714km 463.753km
周期 93.848分钟 93.848分钟
每日圈数 15.343894 15.343898
Detailed Information
固有亮度:
5
最大亮度:
0.3
卫星平台:
Starlink v2.0 mini
覆盖范围:
全球
运营商:
太空探索技术公司
运营商所在国:
美国
制造商(研发单位):
太空探索技术公司
制造商所在国:
美国
使用方式:
暂无
Satellite Introduction
星链(Starlink)计划是由太空探索技术公司(SpaceX)提出的一个巨型低轨卫星互联网星座项目,计划在2019年至2024年间在太空搭建由约1.2万颗卫星组成的“星链”网络,其中1584颗将部署在地球上空550千米处的近地轨道,并从2020年开始工作。该卫星仍在工作。
2D Orbit Map
3D Orbit Map
Orbit Altitude Analysis Chart
Orbit Inclination Analysis Chart
Orbit Comprehensive Analysis Chart
View Comprehensive Chart